EHI
0 0 0 0 0 0 0 0 0 0 0 0 0 0 2 5 7 16 38 61 73 78 79 76 72 69 69 67 63 58 52 43 33 31 34 34 31 26 23 24 23 19 13 9
0 0 0 0 0 0 0 0 0 0 0 0 0 1 4 7 10 18 37 60 75 80 80 77 72 68 66 65 61 56 51 42 32 29 31 32 30 26 24 24 24 22 16 11
0 0 0 0 0 0 0 0 0 0 0 0 0 3 7 12 14 20 34 55 73 80 79 75 71 66 64 62 58 53 48 41 33 28 27 28 28 25 23 23 25 24 18 14
0 0 0 0 0 0 0 0 0 0 0 0 0 3 8 14 17 21 29 47 66 77 76 71 67 64 61 57 53 48 45 40 34 28 26 26 25 21 20 23 26 26 23 19
0 0 0 0 0 0 0 0 0 0 0 0 0 1 6 10 14 19 27 41 60 72 73 69 65 63 58 51 46 44 43 40 34 29 27 26 23 20 21 26 30 31 29 27
0 0 0 0 0 0 0 0 0 0 0 0 0 1 3 5 8 18 27 39 55 66 68 66 63 60 53 46 43 42 41 39 35 30 28 27 24 21 22 27 29 30 30 30
0 0 0 0 0 0 0 0 0 0 0 0 0 1 2 2 6 15 27 37 49 59 62 61 60 55 49 44 42 43 42 40 36 30 28 28 24 18 18 21 22 24 24 23
0 0 0 0 0 0 0 0 0 0 0 0 0 1 2 3 7 14 22 31 41 51 56 56 56 52 47 43 43 43 42 41 36 31 29 28 23 17 14 14 15 17 17 15
0 0 0 0 0 0 0 0 0 0 0 0 0 0 2 4 8 13 19 26 36 45 50 50 50 49 47 44 42 42 42 38 34 31 29 28 25 21 14 11 12 13 13 11
0 0 0 0 0 0 0 0 0 0 0 0 0 0 3 6 10 13 19 26 35 42 45 45 45 46 45 43 42 42 41 37 33 31 28 26 26 25 20 16 14 13 12 11
0 0 0 0 0 0 0 0 0 0 0 0 0 0 3 7 10 14 20 28 34 38 42 45 48 48 46 44 44 44 41 37 33 31 28 25 26 27 26 23 18 15 13 11
0 0 0 0 0 0 0 0 0 0 0 0 0 1 2 5 10 16 23 31 37 38 41 49 54 52 47 46 45 44 39 34 32 32 30 28 27 28 26 23 20 18 16 14
0 0 0 0 0 0 0 0 0 0 0 0 0 1 3 5 11 19 27 38 45 45 46 55 60 57 52 50 50 46 40 35 34 33 33 32 30 28 24 20 18 20 22 22
0 0 0 0 0 0 0 0 0 0 0 0 1 3 6 10 16 23 32 43 50 53 58 64 68 64 59 58 57 51 46 43 40 38 36 35 32 27 23 20 19 20 22 24
0 0 0 0 0 0 0 0 0 0 0 0 2 7 12 17 21 26 34 44 50 57 65 70 71 68 64 63 63 58 54 52 48 44 39 34 30 26 22 21 21 20 18 18
0 0 0 0 0 0 0 0 0 0 1 1 5 11 18 21 23 25 32 42 49 55 63 68 70 69 65 64 65 63 59 57 52 47 40 32 28 27 23 21 21 21 18 17
0 0 0 0 0 0 0 0 0 1 3 4 8 15 21 24 25 27 33 44 51 54 61 66 68 69 66 64 65 64 62 58 51 46 40 32 29 28 25 21 21 21 19 18
0 0 0 0 0 0 0 0 0 2 6 10 14 20 26 29 31 34 41 51 57 59 63 66 67 67 67 66 66 64 62 58 50 45 40 33 28 27 26 23 21 21 19 17
1 1 1 0 0 0 0 1 1 4 10 17 23 29 33 33 34 39 48 56 61 63 64 66 67 68 68 69 68 64 61 56 48 43 38 32 28 26 25 23 21 20 18 16
1 1 1 0 0 1 2 3 3 7 14 23 30 38 40 38 40 45 50 55 61 63 63 65 69 71 71 69 66 63 60 54 47 42 37 32 28 26 23 21 19 17 15 13
0 0 0 0 1 3 6 6 9 17 25 31 37 43 47 49 52 55 55 57 60 60 59 62 67 71 70 66 62 58 56 52 46 40 36 30 26 22 20 18 17 15 13 12
1 1 2 2 4 10 16 18 23 30 35 37 40 44 49 53 56 57 57 57 57 54 52 55 61 65 65 62 58 52 50 48 43 36 30 25 21 18 16 15 14 14 13 13
3 5 7 8 10 18 25 30 32 33 32 33 37 41 45 48 49 48 49 51 50 48 48 49 53 56 57 55 51 46 43 41 36 28 22 19 17 15 13 12 12 12 12 13
5 7 10 12 13 16 21 26 28 27 25 27 34 38 40 41 40 38 39 43 43 43 45 45 45 46 45 43 41 39 36 34 28 21 17 16 14 13 12 11 11 11 10 9
7 8 10 13 14 13 14 17 21 23 25 29 33 35 35 36 35 31 31 34 37 38 38 39 38 36 33 31 30 30 29 27 23 18 16 15 12 10 10 9 7 7 5 3
9 10 12 15 17 16 15 17 19 22 26 30 32 33 32 33 31 27 25 28 32 33 34 35 35 32 27 24 23 24 23 22 20 17 16 14 12 9 8 6 3 2 1 0
Wind_Speed
9 10 11 10 9 8 9 10 7 4 2 4 5 3 3 5 5 6 8 9 10 9 10 10 9 9 9 8 8 8 8 7 5 4 4 4 3 3 3 3 5 5 4 4
10 13 12 9 6 7 8 9 9 5 2 4 6 6 3 5 5 5 7 10 10 10 10 10 9 9 9 8 8 7 7 7 7 5 3 3 3 2 3 3 5 5 5 5
15 8 6 8 8 8 10 9 8 7 6 8 9 6 2 1 2 5 6 9 11 11 12 11 10 8 8 8 8 7 7 7 7 6 4 3 3 2 2 3 3 4 5 5
14 11 6 8 9 10 10 9 7 8 10 8 9 4 4 7 6 6 7 8 10 11 12 11 10 9 9 8 7 6 6 6 6 6 6 7 6 5 4 4 4 4 5 5
12 11 10 10 11 10 10 8 7 9 10 10 10 7 3 7 5 6 6 7 10 11 11 10 9 8 7 7 7 7 6 5 6 6 6 5 5 4 3 3 4 4 4 4
14 10 9 10 11 10 9 8 9 11 10 10 10 8 1 4 4 5 8 8 9 11 11 10 9 8 7 7 7 7 6 5 5 6 5 5 5 4 3 3 4 4 3 4
14 14 10 8 11 10 10 9 7 7 6 7 8 6 3 6 5 5 8 9 9 9 10 10 9 9 7 7 7 7 7 6 6 6 5 5 5 5 5 4 4 4 3 3
15 14 14 11 13 10 11 12 9 7 5 2 2 2 4 6 7 7 8 9 10 11 9 10 9 9 8 8 7 7 7 6 6 6 5 4 4 4 4 4 3 3 3 3
10 12 13 12 11 14 12 12 14 13 11 8 4 4 7 8 7 8 8 9 9 10 10 9 10 9 9 8 7 6 6 5 5 6 5 4 4 3 3 2 3 2 1 2
13 8 10 12 10 13 14 11 8 9 8 8 5 3 3 8 8 8 8 8 9 10 10 10 9 9 8 8 7 6 6 5 4 4 4 5 4 3 3 2 2 1 1 1
15 10 9 12 11 13 13 12 10 8 8 9 4 2 3 5 6 8 8 9 9 9 10 10 9 8 9 9 8 7 6 5 4 4 3 3 3 3 3 2 2 1 1 1
12 9 10 11 12 13 12 13 12 8 7 8 7 2 5 4 6 8 8 9 9 8 9 10 10 9 8 8 8 7 7 5 4 4 3 3 3 3 3 2 2 2 2 1
9 8 10 11 11 13 11 12 13 12 9 9 7 3 3 1 5 8 9 9 8 8 8 9 9 8 8 7 7 7 7 6 6 5 4 4 3 3 2 2 2 2 2 2
6 9 12 12 7 11 13 14 13 13 10 9 7 4 5 3 4 7 8 9 8 8 7 7 7 6 6 6 6 6 6 6 6 6 5 4 3 3 2 3 3 3 3 3
8 11 13 15 14 11 12 14 14 13 12 11 4 3 4 4 4 6 7 7 9 8 8 7 7 6 5 6 6 6 6 6 6 6 5 4 4 4 3 3 3 3 3 3
8 9 11 14 16 14 13 12 12 13 12 11 7 2 4 5 4 5 6 6 7 7 8 8 8 7 6 5 5 5 6 6 6 6 6 5 5 4 3 3 4 3 3 3
9 7 10 12 13 13 14 11 11 11 9 7 5 3 4 6 6 4 4 5 5 5 6 6 7 7 6 6 5 5 6 6 6 5 5 5 5 5 4 4 4 4 4 4
6 6 7 11 11 14 9 8 8 7 5 3 3 3 6 7 7 5 4 4 5 4 4 5 4 6 6 6 6 5 6 6 6 6 5 5 5 5 5 4 4 4 4 4
7 6 8 10 12 12 8 5 6 6 2 2 2 4 6 6 6 6 6 6 4 4 4 4 4 6 5 5 6 6 6 6 6 6 5 5 6 5 5 4 4 4 4 5
9 6 8 9 11 9 2 3 5 6 4 3 3 4 5 3 3 4 5 5 4 5 5 4 5 6 6 5 6 5 5 5 5 5 5 6 6 6 5 5 5 4 4 5
12 10 11 12 11 5 5 6 5 4 2 4 5 6 6 4 5 6 6 5 5 6 6 6 6 6 5 5 5 5 4 4 5 5 6 6 5 6 6 5 4 5 5 5
11 11 11 11 11 4 7 3 3 6 7 8 7 8 8 9 9 8 7 6 6 6 6 7 6 6 5 5 5 4 4 5 6 6 6 6 5 4 5 5 5 4 5 6
5 2 1 1 1 5 7 8 6 6 6 6 7 7 7 7 7 7 6 6 6 6 6 6 6 6 5 4 4 5 5 5 6 7 6 6 5 5 4 5 4 4 3 4
4 2 1 2 5 5 5 6 6 6 6 6 6 5 6 6 5 6 5 5 5 5 5 5 6 5 5 4 4 5 5 5 6 7 6 5 5 4 4 3 3 2 2 2
3 0 1 2 2 3 4 5 6 6 6 6 6 6 5 5 5 5 4 4 4 5 4 5 5 5 5 5 5 4 4 5 6 7 6 6 5 5 5 6 5 4 5 3
4 3 1 1 3 2 4 5 5 4 4 5 5 5 4 4 5 5 4 4 4 4 4 5 5 5 5 5 5 4 3 4 5 5 5 5 5 5 5 6 7 13 10 11
Wind_Direction
222 238 244 243 240 265 300 308 311 317 22 307 296 278 199 156 172 160 152 152 156 156 156 148 150 153 155 155 160 165 170 173 174 171 172 179 190 187 170 166 161 167 180 180
231 233 247 265 281 283 279 281 283 286 313 285 283 288 245 162 171 156 155 155 158 156 150 148 154 159 160 161 168 175 176 175 178 176 174 175 178 194 182 177 161 177 178 183
237 241 225 250 259 261 263 267 283 305 306 277 265 259 228 160 157 148 160 155 156 161 156 156 162 161 162 168 177 179 174 175 179 176 181 176 170 191 182 167 172 187 185 193
241 247 247 245 249 249 257 265 281 289 287 290 289 279 179 171 194 172 156 155 154 155 152 156 161 163 169 174 174 164 170 174 174 183 195 190 188 191 190 181 180 186 194 196
234 231 232 241 246 250 265 287 287 277 276 280 281 280 176 164 164 161 148 143 140 144 148 153 156 157 164 167 163 162 166 174 179 192 202 201 199 197 187 180 172 185 193 200
250 239 229 237 243 248 261 272 271 263 265 264 265 272 152 123 134 142 131 126 131 138 143 146 150 150 156 156 158 163 164 175 185 194 202 204 204 193 189 190 177 191 198 203
235 238 227 236 243 227 235 246 252 246 237 248 259 256 105 111 103 103 119 128 125 131 141 145 146 148 154 155 159 162 167 178 187 195 203 207 206 199 197 202 194 196 204 207
214 224 212 216 235 232 222 238 251 273 283 285 234 267 112 107 103 108 115 122 131 139 145 143 144 149 154 156 158 160 165 177 190 197 199 201 200 206 203 205 205 204 209 215
224 223 198 201 219 242 232 232 254 268 275 275 239 180 147 130 129 125 123 128 137 140 137 139 147 151 153 156 159 159 162 171 184 188 186 189 194 206 206 192 197 206 212 205
263 255 201 187 210 232 251 252 258 266 283 285 262 257 144 140 140 131 130 130 130 131 137 143 148 151 151 151 151 153 155 159 163 168 184 174 183 189 190 197 190 178 174 119
246 261 229 187 204 226 221 244 260 278 276 281 282 86 111 142 143 138 135 131 133 139 142 143 146 149 149 147 150 152 146 147 155 165 164 148 160 174 174 173 165 140 118 128
226 247 251 217 208 229 230 229 235 247 266 278 285 165 145 155 139 129 122 128 133 135 136 138 140 147 149 149 148 148 149 154 150 144 139 135 136 148 154 158 148 127 117 113
216 242 246 235 215 205 232 235 233 239 252 265 272 122 111 130 127 122 122 127 132 133 132 132 139 148 149 149 146 148 155 152 147 142 136 128 132 133 136 128 122 123 123 119
233 235 249 249 237 206 216 234 235 238 241 245 249 182 162 180 137 115 122 133 135 134 132 131 133 137 138 137 138 144 149 144 142 136 132 130 133 129 119 114 109 112 115 106
235 233 246 265 271 260 225 225 231 237 249 261 241 189 149 159 139 128 131 133 138 144 141 138 139 134 135 135 139 142 139 137 137 134 134 133 125 120 117 113 110 104 105 109
219 254 250 255 262 262 254 230 226 234 241 249 254 203 145 132 124 123 129 135 139 148 149 149 149 148 150 148 148 143 137 132 129 133 137 131 124 122 121 116 112 108 105 106
203 229 254 254 251 256 252 242 233 230 235 240 243 162 141 127 113 113 131 134 127 139 140 149 151 152 154 157 154 149 142 140 140 139 137 135 133 125 118 116 111 108 106 104
212 219 248 256 256 248 248 250 243 241 234 232 156 130 116 109 104 88 78 102 116 111 124 129 140 139 147 152 150 148 145 144 145 144 141 139 133 127 119 115 111 109 108 106
211 214 244 253 248 243 242 248 243 223 178 29 75 95 100 104 116 91 64 63 77 100 95 112 126 132 132 134 138 142 145 145 147 147 142 139 132 126 121 117 111 107 106 105
213 202 239 252 257 251 276 280 272 235 160 53 59 83 97 110 149 98 83 82 77 80 91 93 104 110 115 119 127 133 140 141 148 145 138 133 129 126 123 119 117 114 110 104
206 207 226 245 253 261 347 341 300 238 89 50 60 70 79 66 70 84 77 80 79 79 81 89 91 96 105 115 121 128 132 133 127 117 113 115 119 120 119 116 115 117 115 109
205 211 214 236 247 249 11 34 41 62 50 47 53 62 75 76 78 85 81 73 72 77 82 87 86 87 93 109 119 121 116 110 110 113 113 111 110 115 117 117 116 119 124 123
211 218 242 216 95 72 51 66 68 75 69 60 65 65 82 91 94 93 86 80 75 73 79 86 91 90 89 97 111 116 114 113 114 114 113 110 105 101 111 122 131 140 149 142
188 150 133 97 110 94 79 78 67 63 59 63 66 67 74 90 98 105 104 96 87 82 80 85 90 92 87 81 89 104 117 122 125 124 122 121 118 111 103 101 109 114 117 133
359 340 184 164 124 103 77 70 66 62 53 58 57 60 64 80 92 96 96 93 92 90 81 83 89 93 89 86 88 96 111 129 132 134 136 132 123 114 91 70 48 57 54 50
341 348 324 76 62 62 79 65 58 56 47 50 56 56 58 76 93 98 96 96 94 91 85 86 91 95 95 91 86 83 90 122 135 137 136 131 129 124 119 112 85 54 61 62